NINGXIA-1 7 (49019 NORAD) Tracking and Keplerian Element Data

This shows tracking and keplerian element data for the satellite.

Feedback or suggestion? Click here.




ElementValue
Catalog49019
NameNINGXIA-1 7
Epoch Orbit1109
Epoch Day269.21558643
Epoch Year2021
RAAN96.3246
Inclination45.0042
Eccentricity0.0008624
Argument of Perigee267.5848
Mean Anonmoly92.4091
Mean Motion14.08190735
Decay Rate-0.00036317
L11 49019U 21064B 21269.21558643 -.00036317 00000-0 -21149-1 0 9990
L22 49019 45.0042 96.3246 0008624 267.5848 92.4091 14.08190735 11094

Live tracking and technical data element details for NINGXIA-1 7 (NORAD 49019). NINGXIA-1 7 can be tracked NOW for your location showing map with azimuth and elevation plus other details from your city location.

Track the satellite on the map from your city or location and see movement details for azimuth, elevation, latitude, longitude, range, height, and movement on the map or in text.







IsCatalogInMostPopularTable: catalog: 49019, numindb: 18
Update: records affected: 1



GetName: 49019 NINGXIA-1 7

Hit Count: updated at: Sun, 26 Sep 2021 16:04:41 GMT